FWV3TG LDDU-LSZH

Flight info

Callsign FWV3TG
Flight time 1h 30m
Altitude 36000
Route AMUGO DCT SPL DCT ZDA DCT MONFA DCT BAKOR DCT SOTOV/N0446F300 P66 KPT L856 NEGRA
Aircraft B38M/M-SDE1FGHILORVWXY/HB1

Departure

Time 2026-05-07 18:15
Airport Dubrovnik Ruđer Bošković Airport (LDDU)

Arrival

Time 2026-05-07 19:46
Airport Zürich Airport (LSZH)
Time Latitude Longitude Altitude Speed Heading
2026-05-07 17:16 42.56093 18.26306 536 ft 0 kts 208°
2026-05-07 18:03 42.56101 18.26312 536 ft 4 kts 208°
2026-05-07 18:04 42.56120 18.26326 536 ft 3 kts 209°
2026-05-07 18:04 42.56135 18.26346 536 ft 4 kts 270°
2026-05-07 18:04 42.56127 18.26376 536 ft 4 kts 298°
2026-05-07 18:04 42.56120 18.26394 536 ft 0 kts 298°
2026-05-07 18:08 42.56120 18.26393 536 ft 1 kts 298°
2026-05-07 18:08 42.56128 18.26374 536 ft 5 kts 298°
2026-05-07 18:09 42.56154 18.26308 536 ft 11 kts 298°
2026-05-07 18:09 42.56202 18.26187 536 ft 17 kts 297°
2026-05-07 18:09 42.56261 18.26039 536 ft 19 kts 298°
2026-05-07 18:09 42.56325 18.25877 536 ft 20 kts 298°
2026-05-07 18:10 42.56395 18.25704 536 ft 22 kts 298°
2026-05-07 18:10 42.56468 18.25519 536 ft 23 kts 296°
2026-05-07 18:10 42.56546 18.25322 536 ft 23 kts 298°
2026-05-07 18:10 42.56615 18.25150 536 ft 21 kts 298°
2026-05-07 18:11 42.56685 18.24970 536 ft 22 kts 298°
2026-05-07 18:11 42.56734 18.24846 536 ft 21 kts 298°
2026-05-07 18:11 42.56788 18.24714 536 ft 5 kts 303°
2026-05-07 18:11 42.56789 18.24711 536 ft 0 kts 306°
2026-05-07 18:12 42.56795 18.24702 536 ft 3 kts 314°
2026-05-07 18:12 42.56825 18.24677 536 ft 8 kts 338°
2026-05-07 18:13 42.56902 18.24690 536 ft 14 kts 34°
2026-05-07 18:13 42.56940 18.24779 535 ft 10 kts 89°
2026-05-07 18:13 42.56933 18.24815 535 ft 0 kts 117°
2026-05-07 18:13 42.56933 18.24816 535 ft 0 kts 117°
2026-05-07 18:14 42.56929 18.24826 535 ft 8 kts 118°
2026-05-07 18:14 42.56777 18.25209 534 ft 85 kts 118°
2026-05-07 18:14 42.56388 18.26193 537 ft 149 kts 118°
2026-05-07 18:15 42.55802 18.27572 820 ft 180 kts 119°
2026-05-07 18:15 42.55183 18.29089 1684 ft 188 kts 119°
2026-05-07 18:15 42.54570 18.30686 2476 ft 198 kts 118°
2026-05-07 18:15 42.53905 18.32424 3103 ft 212 kts 124°
2026-05-07 18:16 42.52904 18.33861 3916 ft 213 kts 153°
2026-05-07 18:16 42.51499 18.34356 4813 ft 210 kts 184°
2026-05-07 18:16 42.50101 18.33816 5655 ft 213 kts 211°
2026-05-07 18:16 42.49030 18.32423 6509 ft 218 kts 232°
2026-05-07 18:17 42.48013 18.30944 7255 ft 219 kts 208°
2026-05-07 18:17 42.46590 18.30303 8145 ft 217 kts 194°
2026-05-07 18:17 42.45105 18.29802 8946 ft 221 kts 195°
2026-05-07 18:17 42.43613 18.29300 9835 ft 221 kts 195°
2026-05-07 18:18 42.42108 18.28801 10580 ft 224 kts 195°
2026-05-07 18:18 42.40633 18.28026 11085 ft 236 kts 217°
2026-05-07 18:18 42.39586 18.26272 11568 ft 250 kts 247°
2026-05-07 18:18 42.39333 18.23884 12076 ft 270 kts 274°
2026-05-07 18:19 42.39881 18.21417 12652 ft 284 kts 285°
2026-05-07 18:19 42.40501 18.18841 13337 ft 290 kts 284°
2026-05-07 18:19 42.41110 18.16244 14209 ft 290 kts 284°
2026-05-07 18:19 42.41721 18.13626 14927 ft 294 kts 284°
2026-05-07 18:20 42.42347 18.10935 15385 ft 308 kts 284°
2026-05-07 18:20 42.43010 18.08082 15635 ft 327 kts 284°
2026-05-07 18:20 42.43709 18.05070 15952 ft 343 kts 284°
2026-05-07 18:20 42.44433 18.01945 16484 ft 350 kts 285°
2026-05-07 18:21 42.45151 17.98841 17190 ft 352 kts 285°
2026-05-07 18:21 42.45887 17.95657 17838 ft 356 kts 285°
2026-05-07 18:21 42.46627 17.92448 18487 ft 359 kts 285°
2026-05-07 18:21 42.47371 17.89213 19034 ft 362 kts 285°
2026-05-07 18:22 42.48122 17.85948 19606 ft 364 kts 285°
2026-05-07 18:22 42.48622 17.83771 19977 ft 366 kts 284°
2026-05-07 18:22 42.49637 17.79347 20720 ft 369 kts 284°
2026-05-07 18:22 42.50401 17.76012 21266 ft 372 kts 284°
2026-05-07 18:23 42.51170 17.72646 21812 ft 375 kts 284°
2026-05-07 18:23 42.51935 17.69303 22341 ft 378 kts 284°
2026-05-07 18:23 42.52710 17.65895 22863 ft 380 kts 284°
2026-05-07 18:23 42.53493 17.62456 23391 ft 383 kts 284°
2026-05-07 18:24 42.54503 17.59091 23859 ft 391 kts 297°
2026-05-07 18:24 42.56229 17.56209 24365 ft 398 kts 310°
2026-05-07 18:24 42.58188 17.53546 24796 ft 400 kts 310°
2026-05-07 18:24 42.60167 17.50881 25239 ft 402 kts 310°
2026-05-07 18:25 42.62163 17.48220 25688 ft 403 kts 310°
2026-05-07 18:25 42.64147 17.45593 26107 ft 405 kts 310°
2026-05-07 18:25 42.66169 17.42920 26533 ft 406 kts 310°
2026-05-07 18:25 42.68197 17.40240 26950 ft 408 kts 310°
2026-05-07 18:26 42.70232 17.37550 27416 ft 409 kts 310°
2026-05-07 18:26 42.72271 17.34853 27825 ft 410 kts 310°
2026-05-07 18:26 42.74317 17.32142 28215 ft 412 kts 310°
2026-05-07 18:26 42.76372 17.29418 28604 ft 413 kts 310°
2026-05-07 18:27 42.78433 17.26683 28986 ft 415 kts 310°
2026-05-07 18:27 42.80473 17.23973 29371 ft 416 kts 310°
2026-05-07 18:27 42.82549 17.21212 29734 ft 418 kts 310°
2026-05-07 18:27 42.83954 17.19343 29982 ft 419 kts 310°
2026-05-07 18:28 42.86719 17.15659 30395 ft 421 kts 310°
2026-05-07 18:28 42.88814 17.12865 30692 ft 422 kts 310°
2026-05-07 18:28 42.90916 17.10059 30991 ft 423 kts 310°
2026-05-07 18:28 42.93021 17.07246 31295 ft 424 kts 310°
2026-05-07 18:29 42.95131 17.04426 31682 ft 424 kts 309°
2026-05-07 18:29 42.97208 17.01644 32024 ft 424 kts 309°
2026-05-07 18:29 42.99303 16.98834 32454 ft 422 kts 309°
2026-05-07 18:29 43.01391 16.96031 32883 ft 420 kts 309°
2026-05-07 18:30 43.03468 16.93242 33304 ft 418 kts 308°
2026-05-07 18:30 43.05535 16.90463 33719 ft 416 kts 308°
2026-05-07 18:30 43.07591 16.87697 34111 ft 414 kts 308°
2026-05-07 18:30 43.09639 16.84939 34446 ft 413 kts 308°
2026-05-07 18:31 43.11681 16.82187 34750 ft 412 kts 308°
2026-05-07 18:31 43.13692 16.79473 35063 ft 411 kts 308°
2026-05-07 18:31 43.15722 16.76729 35331 ft 410 kts 308°
2026-05-07 18:31 43.17749 16.73989 35615 ft 409 kts 308°
2026-05-07 18:32 43.19775 16.71246 35893 ft 409 kts 308°
2026-05-07 18:32 43.21805 16.68494 36037 ft 411 kts 308°
2026-05-07 18:32 43.23840 16.65734 36065 ft 412 kts 308°
2026-05-07 18:33 43.27898 16.60220 36047 ft 410 kts 308°
2026-05-07 18:33 43.31921 16.54746 36055 ft 410 kts 308°
2026-05-07 18:34 43.35967 16.49227 36059 ft 410 kts 308°
2026-05-07 18:34 43.40009 16.43703 36046 ft 410 kts 308°
2026-05-07 18:35 43.44053 16.38168 36059 ft 411 kts 308°
2026-05-07 18:35 43.48101 16.32618 36060 ft 415 kts 308°
2026-05-07 18:36 43.51971 16.26759 36057 ft 413 kts 305°
2026-05-07 18:36 43.55786 16.20828 36050 ft 413 kts 305°
2026-05-07 18:37 43.59608 16.14904 36054 ft 413 kts 305°
2026-05-07 18:37 43.63428 16.08976 36056 ft 413 kts 305°
2026-05-07 18:38 43.67220 16.03077 36045 ft 413 kts 305°
2026-05-07 18:38 43.71036 15.97130 36063 ft 413 kts 305°
2026-05-07 18:39 43.74846 15.91180 36056 ft 413 kts 305°
2026-05-07 18:39 43.78652 15.85223 36056 ft 413 kts 304°
2026-05-07 18:40 43.82428 15.79301 36049 ft 413 kts 304°
2026-05-07 18:40 43.86228 15.73328 36036 ft 413 kts 304°
2026-05-07 18:41 43.90025 15.67348 36053 ft 413 kts 304°
2026-05-07 18:41 43.93823 15.61355 36065 ft 414 kts 304°
2026-05-07 18:42 43.97599 15.55382 36046 ft 415 kts 304°
2026-05-07 18:42 44.01401 15.49357 36045 ft 415 kts 304°
2026-05-07 18:43 44.05198 15.43327 36048 ft 415 kts 304°
2026-05-07 18:43 44.08995 15.37295 36047 ft 415 kts 306°
2026-05-07 18:44 44.13006 15.31543 36051 ft 417 kts 307°
2026-05-07 18:44 44.17022 15.25740 36066 ft 417 kts 307°
2026-05-07 18:45 44.21044 15.19903 36053 ft 418 kts 307°
2026-05-07 18:45 44.25069 15.14049 36048 ft 418 kts 307°
2026-05-07 18:46 44.29064 15.08228 36043 ft 418 kts 307°
2026-05-07 18:46 44.33081 15.02361 36043 ft 418 kts 307°
2026-05-07 18:47 44.37092 14.96492 36043 ft 418 kts 307°
2026-05-07 18:47 44.41099 14.90616 36057 ft 418 kts 307°
2026-05-07 18:48 44.45092 14.84747 36045 ft 419 kts 307°
2026-05-07 18:48 44.49112 14.78828 36043 ft 419 kts 307°
2026-05-07 18:49 44.53124 14.72905 36036 ft 419 kts 307°
2026-05-07 18:49 44.57135 14.66973 36037 ft 419 kts 307°
2026-05-07 18:50 44.61144 14.61030 36036 ft 419 kts 307°
2026-05-07 18:50 44.65119 14.55125 36055 ft 419 kts 307°
2026-05-07 18:51 44.69135 14.49147 36053 ft 421 kts 307°
2026-05-07 18:51 44.73150 14.43156 36038 ft 421 kts 307°
2026-05-07 18:52 44.77166 14.37152 36034 ft 421 kts 307°
2026-05-07 18:52 44.81174 14.31147 36038 ft 421 kts 307°
2026-05-07 18:53 44.85152 14.25174 36037 ft 421 kts 307°
2026-05-07 18:53 44.89152 14.19155 36062 ft 421 kts 307°
2026-05-07 18:54 44.93156 14.13115 36038 ft 422 kts 307°
2026-05-07 18:54 44.97163 14.07059 36034 ft 422 kts 307°
2026-05-07 18:55 45.01137 14.01038 36040 ft 422 kts 307°
2026-05-07 18:55 45.05137 13.94966 36032 ft 422 kts 307°
2026-05-07 18:56 45.09129 13.88892 36038 ft 421 kts 307°
2026-05-07 18:56 45.13110 13.82822 36058 ft 421 kts 307°
2026-05-07 18:57 45.17069 13.76771 36029 ft 422 kts 307°
2026-05-07 18:57 45.21054 13.70668 36028 ft 422 kts 307°
2026-05-07 18:58 45.25039 13.64552 36020 ft 422 kts 307°
2026-05-07 18:58 45.29016 13.58434 36026 ft 421 kts 307°
2026-05-07 18:59 45.32955 13.52360 36020 ft 421 kts 307°
2026-05-07 18:59 45.36918 13.46238 36020 ft 421 kts 307°
2026-05-07 19:00 45.40884 13.40100 36022 ft 422 kts 307°
2026-05-07 19:00 45.44855 13.33941 36018 ft 422 kts 307°
2026-05-07 19:01 45.48831 13.27859 36007 ft 425 kts 311°
2026-05-07 19:01 45.53170 13.22134 36014 ft 425 kts 311°
2026-05-07 19:02 45.57472 13.16348 36011 ft 425 kts 310°
2026-05-07 19:02 45.61765 13.10548 36031 ft 425 kts 310°
2026-05-07 19:03 45.66063 13.04725 36010 ft 426 kts 310°
2026-05-07 19:03 45.70339 12.98921 36012 ft 426 kts 310°
2026-05-07 19:04 45.74632 12.93080 36016 ft 426 kts 310°
2026-05-07 19:04 45.78922 12.87229 36016 ft 426 kts 310°
2026-05-07 19:05 45.83210 12.81368 36017 ft 426 kts 310°
2026-05-07 19:05 45.87468 12.75535 36026 ft 426 kts 310°
2026-05-07 19:06 45.91750 12.69657 36012 ft 425 kts 310°
2026-05-07 19:06 45.98145 12.60852 35993 ft 424 kts 310°
2026-05-07 19:07 46.02404 12.54972 35994 ft 424 kts 310°
2026-05-07 19:07 46.06629 12.49126 35982 ft 424 kts 310°
2026-05-07 19:08 46.10880 12.43229 36000 ft 425 kts 310°
2026-05-07 19:08 46.15131 12.37321 36011 ft 425 kts 310°
2026-05-07 19:09 46.19378 12.31405 36024 ft 425 kts 310°
2026-05-07 19:09 46.23595 12.25518 36015 ft 423 kts 310°
2026-05-07 19:10 46.27835 12.19584 36041 ft 425 kts 310°
2026-05-07 19:10 46.32072 12.13640 36021 ft 424 kts 310°
2026-05-07 19:11 46.36311 12.07683 36036 ft 425 kts 310°
2026-05-07 19:11 46.40521 12.01750 36044 ft 426 kts 310°
2026-05-07 19:12 46.44762 11.95760 36028 ft 425 kts 310°
2026-05-07 19:12 46.49004 11.89756 36027 ft 426 kts 310°
2026-05-07 19:13 46.53242 11.83745 36019 ft 426 kts 310°
2026-05-07 19:13 46.57481 11.77722 36038 ft 426 kts 310°
2026-05-07 19:14 46.61634 11.71655 36010 ft 425 kts 308°
2026-05-07 19:14 46.65701 11.65388 36012 ft 426 kts 308°
2026-05-07 19:15 46.69775 11.59133 36008 ft 426 kts 308°
2026-05-07 19:15 46.73851 11.52866 36014 ft 426 kts 308°
2026-05-07 19:16 46.77895 11.46634 36040 ft 426 kts 308°
2026-05-07 19:16 46.81962 11.40351 36068 ft 425 kts 309°
2026-05-07 19:17 46.86044 11.34030 36040 ft 428 kts 309°
2026-05-07 19:17 46.90132 11.27685 36036 ft 429 kts 309°
2026-05-07 19:18 46.92178 11.24505 35913 ft 429 kts 309°
2026-05-07 19:18 46.94264 11.21420 35730 ft 431 kts 316°
2026-05-07 19:18 46.96756 11.18985 35524 ft 435 kts 323°
2026-05-07 19:18 46.99304 11.16598 35371 ft 435 kts 322°
2026-05-07 19:19 47.01852 11.14216 35176 ft 434 kts 322°
2026-05-07 19:19 47.04402 11.11854 34997 ft 433 kts 323°
2026-05-07 19:19 47.06942 11.09509 34851 ft 428 kts 323°
2026-05-07 19:19 47.09372 11.07111 34565 ft 415 kts 316°
2026-05-07 19:20 47.11602 11.04465 34054 ft 411 kts 316°
2026-05-07 19:20 47.13797 11.01858 33372 ft 411 kts 316°
2026-05-07 19:20 47.16010 10.99214 32779 ft 409 kts 316°
2026-05-07 19:20 47.18201 10.96595 32265 ft 404 kts 316°
2026-05-07 19:21 47.20364 10.94005 31852 ft 398 kts 316°
2026-05-07 19:21 47.22500 10.91442 31392 ft 395 kts 316°
2026-05-07 19:21 47.24623 10.88894 30884 ft 393 kts 317°
2026-05-07 19:21 47.26734 10.86356 30376 ft 391 kts 317°
2026-05-07 19:22 47.28828 10.83838 29886 ft 388 kts 317°
2026-05-07 19:22 47.30888 10.81357 29314 ft 386 kts 317°
2026-05-07 19:22 47.32952 10.78867 28848 ft 381 kts 317°
2026-05-07 19:22 47.34992 10.76405 28406 ft 377 kts 317°
2026-05-07 19:23 47.37009 10.73969 27963 ft 374 kts 317°
2026-05-07 19:23 47.39037 10.71589 27489 ft 373 kts 322°
2026-05-07 19:23 47.41179 10.69449 26998 ft 370 kts 322°
2026-05-07 19:23 47.43269 10.67335 26889 ft 358 kts 322°
2026-05-07 19:24 47.45306 10.65252 26744 ft 360 kts 322°
2026-05-07 19:24 47.46686 10.63834 26620 ft 370 kts 322°
2026-05-07 19:24 47.48841 10.61613 26200 ft 382 kts 322°
2026-05-07 19:24 47.51744 10.58615 25625 ft 387 kts 322°
2026-05-07 19:25 47.53952 10.56331 25174 ft 387 kts 323°
2026-05-07 19:25 47.56159 10.54057 24650 ft 386 kts 323°
2026-05-07 19:25 47.58356 10.51791 24197 ft 384 kts 323°
2026-05-07 19:25 47.60547 10.49530 23780 ft 383 kts 323°
2026-05-07 19:26 47.61992 10.48035 23471 ft 382 kts 323°
2026-05-07 19:26 47.64165 10.45787 22964 ft 380 kts 323°
2026-05-07 19:26 47.66327 10.43549 22525 ft 378 kts 323°
2026-05-07 19:26 47.68475 10.41322 22107 ft 376 kts 323°
2026-05-07 19:27 47.70612 10.39105 21691 ft 374 kts 323°
2026-05-07 19:27 47.72560 10.36604 21206 ft 368 kts 307°
2026-05-07 19:27 47.73803 10.33337 20767 ft 362 kts 287°
2026-05-07 19:27 47.74240 10.29694 20423 ft 358 kts 271°
2026-05-07 19:28 47.74260 10.25997 20040 ft 358 kts 269°
2026-05-07 19:28 47.74235 10.22355 19652 ft 356 kts 269°
2026-05-07 19:28 47.74184 10.18687 19267 ft 354 kts 268°
2026-05-07 19:28 47.74117 10.15040 18869 ft 352 kts 268°
2026-05-07 19:29 47.74040 10.11406 18484 ft 351 kts 268°
2026-05-07 19:29 47.73958 10.07792 18059 ft 349 kts 268°
2026-05-07 19:29 47.73873 10.04207 17646 ft 346 kts 268°
2026-05-07 19:29 47.73786 10.00644 17256 ft 344 kts 267°
2026-05-07 19:30 47.73700 9.97107 16854 ft 342 kts 267°
2026-05-07 19:30 47.73613 9.93628 16438 ft 340 kts 267°
2026-05-07 19:30 47.73525 9.90130 16076 ft 337 kts 267°
2026-05-07 19:30 47.73437 9.86664 15708 ft 335 kts 267°
2026-05-07 19:31 47.73349 9.83218 15343 ft 333 kts 267°
2026-05-07 19:31 47.73260 9.79798 14970 ft 331 kts 267°
2026-05-07 19:31 47.73170 9.76393 14607 ft 329 kts 267°
2026-05-07 19:31 47.73081 9.73011 14255 ft 327 kts 267°
2026-05-07 19:32 47.72990 9.69646 13890 ft 325 kts 267°
2026-05-07 19:32 47.72899 9.66304 13487 ft 324 kts 267°
2026-05-07 19:32 47.72807 9.63008 13050 ft 323 kts 267°
2026-05-07 19:32 47.72715 9.59687 12703 ft 320 kts 267°
2026-05-07 19:33 47.72622 9.56402 12353 ft 317 kts 267°
2026-05-07 19:33 47.72528 9.53152 11996 ft 314 kts 266°
2026-05-07 19:33 47.72436 9.49953 11813 ft 305 kts 267°
2026-05-07 19:33 47.72345 9.46853 11661 ft 296 kts 266°
2026-05-07 19:34 47.72145 9.43852 11364 ft 291 kts 254°
2026-05-07 19:34 47.71241 9.41193 11003 ft 290 kts 233°
2026-05-07 19:34 47.70005 9.38839 10678 ft 288 kts 233°
2026-05-07 19:34 47.68793 9.36557 10454 ft 282 kts 233°
2026-05-07 19:35 47.67590 9.34322 10318 ft 273 kts 232°
2026-05-07 19:35 47.66418 9.32162 10187 ft 265 kts 232°
2026-05-07 19:35 47.65253 9.30031 10086 ft 269 kts 232°
2026-05-07 19:35 47.64064 9.27862 10035 ft 272 kts 232°
2026-05-07 19:36 47.62864 9.25679 10033 ft 274 kts 231°
2026-05-07 19:36 47.61658 9.23488 10044 ft 274 kts 231°
2026-05-07 19:36 47.60464 9.21322 9792 ft 272 kts 231°
2026-05-07 19:36 47.59449 9.19029 9333 ft 270 kts 249°
2026-05-07 19:37 47.59017 9.16327 8828 ft 271 kts 258°
2026-05-07 19:37 47.58650 9.13588 8369 ft 270 kts 258°
2026-05-07 19:37 47.58293 9.10857 7904 ft 270 kts 258°
2026-05-07 19:37 47.57946 9.08126 7472 ft 270 kts 259°
2026-05-07 19:38 47.57625 9.05402 7159 ft 265 kts 259°
2026-05-07 19:38 47.57320 9.02772 6965 ft 253 kts 259°
2026-05-07 19:38 47.56800 9.00381 6753 ft 240 kts 233°
2026-05-07 19:38 47.55500 8.98995 6595 ft 230 kts 196°
2026-05-07 19:39 47.53949 8.98580 6558 ft 231 kts 192°
2026-05-07 19:39 47.52382 8.97932 6515 ft 236 kts 199°
2026-05-07 19:39 47.50835 8.97113 6442 ft 237 kts 201°
2026-05-07 19:39 47.49317 8.96179 6339 ft 237 kts 204°
2026-05-07 19:40 47.47827 8.95152 6225 ft 237 kts 206°
2026-05-07 19:40 47.46364 8.94060 6125 ft 235 kts 207°
2026-05-07 19:40 47.44943 8.92923 6010 ft 226 kts 212°
2026-05-07 19:40 47.43911 8.91283 5884 ft 218 kts 243°
2026-05-07 19:41 47.43544 8.89131 5778 ft 218 kts 266°
2026-05-07 19:41 47.43564 8.86920 5711 ft 219 kts 274°
2026-05-07 19:41 47.43702 8.84674 5401 ft 219 kts 276°
2026-05-07 19:41 47.43862 8.82437 5101 ft 219 kts 276°
2026-05-07 19:42 47.44020 8.80224 4813 ft 213 kts 276°
2026-05-07 19:42 47.44171 8.78098 4501 ft 204 kts 276°
2026-05-07 19:42 47.44315 8.76051 4205 ft 197 kts 277°
2026-05-07 19:42 47.44455 8.74079 3924 ft 190 kts 277°
2026-05-07 19:43 47.44590 8.72169 3645 ft 184 kts 277°
2026-05-07 19:43 47.44722 8.70308 3397 ft 179 kts 277°
2026-05-07 19:43 47.44846 8.68560 3155 ft 162 kts 277°
2026-05-07 19:43 47.44957 8.67004 2921 ft 157 kts 278°
2026-05-07 19:44 47.45067 8.65412 2695 ft 153 kts 278°
2026-05-07 19:44 47.45181 8.63870 2453 ft 151 kts 277°
2026-05-07 19:44 47.45275 8.62329 2208 ft 151 kts 277°
2026-05-07 19:44 47.45397 8.60784 1966 ft 152 kts 277°
2026-05-07 19:45 47.45503 8.59240 1746 ft 150 kts 277°
2026-05-07 19:45 47.45608 8.57699 1528 ft 151 kts 278°
2026-05-07 19:45 47.45721 8.56188 1413 ft 139 kts 277°
2026-05-07 19:45 47.45800 8.55072 1398 ft 77 kts 276°
2026-05-07 19:46 47.45824 8.54537 1401 ft 31 kts 260°
2026-05-07 19:46 47.45781 8.54350 1403 ft 10 kts 246°
2026-05-07 19:46 47.45749 8.54251 1403 ft 12 kts 231°
2026-05-07 19:46 47.45666 8.54211 1399 ft 14 kts 173°
2026-05-07 19:47 47.45606 8.54316 1399 ft 14 kts 103°
2026-05-07 19:47 47.45574 8.54457 1404 ft 15 kts 109°
2026-05-07 19:47 47.45538 8.54616 1402 ft 17 kts 108°
2026-05-07 19:47 47.45506 8.54757 1404 ft 13 kts 108°
2026-05-07 19:48 47.45475 8.54895 1403 ft 15 kts 109°
2026-05-07 19:48 47.45440 8.55044 1405 ft 16 kts 109°
2026-05-07 19:48 47.45404 8.55200 1404 ft 17 kts 109°
2026-05-07 19:48 47.45356 8.55349 1404 ft 13 kts 118°
2026-05-07 19:49 47.45316 8.55452 1402 ft 10 kts 120°
2026-05-07 19:49 47.45286 8.55526 1407 ft 9 kts 121°
2026-05-07 19:49 47.45273 8.55605 1399 ft 8 kts 95°
2026-05-07 19:49 47.45267 8.55701 1399 ft 9 kts 95°
2026-05-07 19:50 47.45277 8.55746 1404 ft 3 kts 21°
2026-05-07 19:50 47.45302 8.55749 1399 ft 4 kts
2026-05-07 19:50 47.45328 8.55753 1399 ft 3 kts
2026-05-07 19:50 47.45342 8.55755 1399 ft 0 kts